"Pseudo-MPEC" for ZTF06CN

Created 2019 Sep 16 15:07:10 UT using Find_Orb

Click here for an explanation of pseudo-MPECs

 
 Astrometry: 
     ZTF06CN  C2019 08 26.19244020 03 34.49 -04 06 08.1    ~8TKq 19.32rUNEOCPI41
     ZTF06CN  C2019 08 26.23488020 03 33.04 -04 06 18.2    ~8TKq 19.20rUNEOCPI41
     ZTF06CN  C2019 08 27.22330020 04 07.19 -04 10 14.8    ~8TKq 20.61rUNEOCPI41
     ZTF06CN  C2019 08 27.22709020 04 07.07 -04 10 15.9    ~8TKq 20.47rUNEOCPI41

Station data:
(I41) Palomar Mountain--ZTF  (N33.357340 W116.859780)  US/California. 1.2-m
   f/2.44 Oschin Schmidt + CCD.

Orbital elements:  ZTF06CN
   Perihelion 2019 Oct 8.796710 +/- 340 TT = 19:07:15 (JD 2458765.296710)
Epoch 2019 Aug 27.0 TT = JDT 2458722.5   Earth MOID: 0.0401   AutoNEOCP
M 322.06726413 +/- 330              (J2000 ecliptic)
n   0.88634701 +/- 0.327            Peri.  130.91956 +/- 240
a   1.07333063 +/- 0.264            Node   241.00535 +/- 170
e   0.0285019 +/- 0.233             Incl.    0.70164 +/- 2.8
P   1.11/406.15d           H 25.3   G  0.15   U 12.0  
q 1.04273858 +/- 0.394    Q 1.10392268 +/- 0.28
From 4 observations 2019 Aug. 26-27 (24.8 hr); mean residual 0".05
Residuals in arcseconds: 
190826 I41  .00   .01+    190827 I41  .05+  .08+    
190826 I41  .00   .01-    190827 I41  .05-  .08-    

Ephemerides (geocentric):
Date (UTC) HH   RA              Dec         delta   r     elong  mag " sig PA
---- -- -- --  -------------   -----------  ------ ------ -----  --- ---- ---
2019 09 16 15  20 32 29.298   -05 49 16.53  .05491 1.0446 134.4 20.8 168d 105
2019 09 16 16  20 32 34.462   -05 49 27.33  .05493 1.0446 134.4 20.8 168d 105
2019 09 16 17  20 32 39.632   -05 49 38.12  .05495 1.0446 134.4 20.8 168d 105
2019 09 16 18  20 32 44.807   -05 49 48.89  .05497 1.0445 134.4 20.8 168d 105
2019 09 16 19  20 32 49.987   -05 49 59.65  .05499 1.0445 134.3 20.8 168d 105
2019 09 16 20  20 32 55.172   -05 50 10.39  .05501 1.0445 134.3 20.8 168d 105
2019 09 16 21  20 33 00.363   -05 50 21.11  .05504 1.0445 134.3 20.8 168d 105
2019 09 16 22  20 33 05.559   -05 50 31.82  .05506 1.0445 134.3 20.8 168d 105
2019 09 16 23  20 33 10.760   -05 50 42.51  .05508 1.0445 134.3 20.8 168d 104
2019 09 17 00  20 33 15.967   -05 50 53.19  .05510 1.0445 134.3 20.8 168d 104
2019 09 17 01  20 33 21.178   -05 51 03.85  .05512 1.0445 134.2 20.8 168d 104
2019 09 17 02  20 33 26.395   -05 51 14.50  .05514 1.0445 134.2 20.8 168d 104
2019 09 17 03  20 33 31.618   -05 51 25.13  .05516 1.0445 134.2 20.8 168d 104
2019 09 17 04  20 33 36.845   -05 51 35.75  .05519 1.0445 134.2 20.8 168d 104
2019 09 17 05  20 33 42.078   -05 51 46.35  .05521 1.0445 134.2 20.8 168d 104
2019 09 17 06  20 33 47.316   -05 51 56.93  .05523 1.0445 134.1 20.8 168d 104
2019 09 17 07  20 33 52.559   -05 52 07.50  .05525 1.0445 134.1 20.8 168d 104
2019 09 17 08  20 33 57.808   -05 52 18.05  .05527 1.0444 134.1 20.8 168d 104
2019 09 17 09  20 34 03.061   -05 52 28.58  .05529 1.0444 134.1 20.8 168d 104
2019 09 17 10  20 34 08.320   -05 52 39.10  .05532 1.0444 134.1 20.8 168d 104
2019 09 17 11  20 34 13.584   -05 52 49.60  .05534 1.0444 134.1 20.8 168d 104
2019 09 17 12  20 34 18.854   -05 53 00.09  .05536 1.0444 134.0 20.8 168d 104
2019 09 17 13  20 34 24.128   -05 53 10.56  .05538 1.0444 134.0 20.8 168d 104
2019 09 17 14  20 34 29.407   -05 53 21.02  .05540 1.0444 134.0 20.8 168d 104
2019 09 17 15  20 34 34.692   -05 53 31.45  .05542 1.0444 134.0 20.8 168d 104
2019 09 17 16  20 34 39.982   -05 53 41.88  .05545 1.0444 134.0 20.9 168d 104
2019 09 17 17  20 34 45.277   -05 53 52.28  .05547 1.0444 134.0 20.9 168d 104
2019 09 17 18  20 34 50.577   -05 54 02.67  .05549 1.0444 133.9 20.9 168d 104
2019 09 17 19  20 34 55.883   -05 54 13.04  .05551 1.0444 133.9 20.9 168d 104
2019 09 17 20  20 35 01.193   -05 54 23.40  .05553 1.0444 133.9 20.9 168d 104
2019 09 17 21  20 35 06.509   -05 54 33.74  .05555 1.0444 133.9 20.9 168d 104
2019 09 17 22  20 35 11.829   -05 54 44.07  .05558 1.0444 133.9 20.9 168d 104
2019 09 17 23  20 35 17.155   -05 54 54.37  .05560 1.0443 133.9 20.9 168d 104
2019 09 18 00  20 35 22.486   -05 55 04.66  .05562 1.0443 133.8 20.9 168d 104
2019 09 18 01  20 35 27.822   -05 55 14.94  .05564 1.0443 133.8 20.9 168d 104
2019 09 18 02  20 35 33.163   -05 55 25.20  .05566 1.0443 133.8 20.9 168d 104
2019 09 18 03  20 35 38.509   -05 55 35.44  .05569 1.0443 133.8 20.9 168d 104
2019 09 18 04  20 35 43.861   -05 55 45.66  .05571 1.0443 133.8 20.9 168d 104
2019 09 18 05  20 35 49.217   -05 55 55.87  .05573 1.0443 133.8 20.9 168d 104
2019 09 18 06  20 35 54.578   -05 56 06.06  .05575 1.0443 133.7 20.9 168d 104
2019 09 18 07  20 35 59.945   -05 56 16.23  .05577 1.0443 133.7 20.9 168d 104
2019 09 18 08  20 36 05.316   -05 56 26.39  .05580 1.0443 133.7 20.9 168d 104
2019 09 18 09  20 36 10.693   -05 56 36.53  .05582 1.0443 133.7 20.9 168d 104
2019 09 18 10  20 36 16.074   -05 56 46.66  .05584 1.0443 133.7 20.9 168d 104
2019 09 18 11  20 36 21.461   -05 56 56.76  .05586 1.0443 133.7 20.9 168d 104
2019 09 18 12  20 36 26.853   -05 57 06.85  .05588 1.0443 133.6 20.9 168d 104
2019 09 18 13  20 36 32.249   -05 57 16.93  .05591 1.0443 133.6 20.9 168d 104
2019 09 18 14  20 36 37.651   -05 57 26.98  .05593 1.0442 133.6 20.9 168d 104